Vertical_Velocity
4 -3 1 -7 0 8 0 6 4 -22 -3 12 -21 5 1 -4 1 6 -3 -6 0 -1 1 3 -1 -1 -0 4 4 -2 -0 1 -1 -0 -2 1 0 -1 -4 -2 -1 -2 -3 -7
7 1 -2 -22 9 -3 11 4 -8 -0 -10 4 -12 -0 8 1 -0 -7 -7 41 -1 -0 2 0 1 3 6 2 -2 -2 0 -0 -1 -2 -1 -1 -0 -4 -2 -2 -3 -5 -4 -2
1 -8 -8 -37 24 4 -9 8 -4 -10 4 5 -13 -3 4 -0 4 -2 0 1 0 1 3 -1 6 7 1 0 -0 0 0 -2 -1 -1 2 -1 0 0 -7 -7 -6 -4 -1 -2
-7 5 -34 21 16 -4 -17 4 -2 -1 1 -1 -2 -5 4 2 2 -3 -4 0 -2 1 -0 -1 2 1 1 -1 0 -1 -0 -1 -0 2 -2 3 1 -5 -7 -4 -4 -4 -4 -3
-13 -3 -10 28 6 -11 -13 20 -6 -0 7 -4 2 1 0 5 1 -4 -2 1 -2 -0 -1 1 2 0 2 0 -1 1 -1 1 2 -1 2 1 -4 -2 -1 -3 -3 -3 -4 -2
-1 -13 -15 15 -8 -4 -5 10 -12 2 1 -3 11 5 -3 -3 -5 0 -2 -3 -3 1 2 1 2 1 1 0 0 0 1 -0 -1 1 1 -2 -1 -1 -3 -2 -1 -4 -4 -2
-4 -15 -1 7 -3 -1 -3 2 1 1 5 1 -3 3 1 1 4 -1 -2 1 2 1 -1 -0 2 1 1 -0 0 -0 -1 -0 1 1 0 -0 -1 -2 -1 -3 -1 -2 -0 2
-3 -9 -0 2 -5 1 5 5 1 1 1 1 -3 -8 -3 -2 0 2 1 1 0 -1 0 -0 0 0 -0 -0 1 -0 -0 1 -0 1 -0 -1 -1 -1 -1 -1 -1 -1 -1 -2
-1 -3 1 4 -1 -2 -3 -2 -5 4 -3 2 -2 -2 -1 -1 -1 1 1 0 -1 -1 -0 -0 1 -1 -0 -0 -2 -2 0 -0 -0 1 -0 0 -0 -1 -0 -0 -0 -1 -1 -1
-5 10 -3 27 2 4 3 1 -0 -2 -1 -0 -2 -3 1 -1 -0 -1 1 -0 -1 1 -0 0 -2 -1 -0 -1 -2 -1 -0 -2 -0 -1 -1 -1 -2 -1 -0 -0 -1 -1 -1 -1
-2 5 5 -0 2 3 0 -9 -4 4 -1 1 -0 -3 0 -0 -1 0 1 0 -1 -1 -1 -1 -1 -1 -1 -2 0 1 -0 0 -0 -0 0 0 -0 0 1 0 0 1 1 -0
2 -1 -0 6 -0 3 8 -1 -3 -2 -0 1 0 -1 -1 1 -1 0 0 1 -2 -1 -2 -1 -0 -2 -2 0 1 0 1 1 1 1 -0 0 1 -0 -1 0 1 0 1 1
-1 0 0 -2 1 16 2 3 1 -3 -0 -1 -0 -2 -0 2 -2 0 0 1 -1 -1 -1 -1 -1 -1 0 1 -1 -1 0 1 0 -0 1 -0 -0 -1 -1 -1 -0 1 -0 -1
-3 -0 0 -0 2 -2 -4 2 2 -1 0 -1 1 1 2 2 -2 -0 -0 -0 -1 -1 -1 -2 -2 -1 -0 0 1 0 1 -0 0 1 0 -0 -0 0 0 0 1 0 1 -1
-2 -2 0 0 2 -3 -3 1 0 -0 -2 -1 -0 0 1 1 1 0 -0 -0 -1 0 -1 -1 -1 -2 -1 -0 -0 -0 0 0 -1 -1 -1 -0 0 0 -1 -0 0 1 3 -0
-1 2 -4 -0 -1 1 -2 -2 -0 -1 -2 -0 -0 1 1 -1 1 1 -0 0 -1 -0 -0 -1 -1 -1 -1 -1 -1 -2 -2 -2 0 1 0 -2 -2 -1 -0 1 0 0 1 0
1 -1 -1 1 0 -1 -1 -1 -0 -1 -0 0 0 1 -1 -1 2 1 -1 -1 -1 -1 0 -0 -2 -0 -1 0 -0 1 1 1 -0 -2 -1 2 1 0 -2 -1 -0 -1 1 -0
1 3 1 2 -0 0 2 1 2 -0 -0 0 -1 -1 -1 -1 0 -1 -1 0 1 -0 -1 0 -0 0 1 1 1 1 1 0 0 2 2 1 1 1 2 1 1 -0 -2 -2
2 -1 -2 1 2 2 0 -0 2 -0 1 1 3 2 2 -1 -0 0 -1 -1 0 1 0 1 -0 0 1 0 0 1 1 2 4 0 -1 -1 -1 -2 -2 0 -0 -1 -1 -3
0 1 -0 -0 -0 1 4 1 -1 -2 -1 -1 -1 -1 -0 0 0 -0 -0 -1 0 2 1 1 -0 1 1 -0 1 1 1 1 1 0 0 2 4 4 4 2 1 1 -1 -0
1 -0 1 2 1 0 -1 -0 1 1 1 0 -0 -0 -1 -1 -0 1 1 1 -0 -0 1 -0 1 1 2 0 1 1 -0 -0 -0 0 1 -0 1 -1 -1 -1 -0 0 1 2
2 1 0 0 1 2 1 1 -0 0 0 1 1 1 1 0 1 1 1 0 -1 0 1 1 -1 -0 -0 0 -2 -1 0 1 1 2 0 -1 0 2 3 2 1 0 1 1
0 2 2 1 0 1 2 2 1 1 1 0 1 1 1 -0 0 0 -1 2 0 -1 2 0 -1 0 2 0 2 4 -2 -2 -1 -0 1 1 1 1 0 0 1 0 -0 0
0 1 1 1 0 1 1 0 0 1 1 0 0 1 2 -1 -0 2 -1 0 3 2 0 1 -0 -3 -0 4 2 3 5 4 3 1 0 0 -0 0 0 -0 -1 -0 1 1
-0 1 0 0 1 2 2 1 1 1 1 1 1 1 1 2 1 1 0 -1 1 0 1 1 1 1 -1 -2 -1 0 1 1 1 1 1 1 1 1 0 0 -0 0 1 -0
-1 -0 1 1 0 -1 2 1 0 1 2 1 0 -0 1 1 2 0 2 -0 -1 -1 1 0 2 3 -0 -1 1 0 -1 -1 -1 0 -0 -1 -0 1 0 1 2 3 2 0
-1 -1 -0 -0 0 0 -1 1 1 -1 0 2 2 -1 -3 -0 2 1 -0 0 2 1 -4 -2 3 -1 -1 -1 1 1 1 0 1 1 -0 1 2 1 1 1 1 1 -1 -1
Height
5645 5641 5639 5643 5643 5642 5638 5638 5633 5635 5631 5627 5629 5626 5621 5622 5620 5619 5617 5614 5612 5611 5609 5607 5605 5603 5601 5600 5598 5595 5593 5591 5590 5587 5583 5579 5573 5566 5559 5552 5545 5539 5532 5526
5635 5630 5629 5632 5632 5630 5632 5630 5623 5621 5621 5618 5617 5617 5617 5615 5613 5610 5606 5603 5604 5602 5601 5599 5597 5596 5596 5593 5590 5589 5587 5585 5583 5579 5576 5573 5568 5560 5552 5546 5538 5532 5527 5521
5628 5620 5620 5624 5624 5623 5621 5618 5614 5611 5612 5611 5609 5609 5608 5608 5606 5602 5600 5598 5596 5595 5593 5593 5592 5591 5589 5586 5585 5583 5581 5579 5575 5573 5572 5569 5564 5558 5551 5543 5536 5531 5526 5521
5615 5610 5611 5615 5612 5611 5608 5606 5606 5603 5604 5604 5604 5602 5599 5599 5598 5596 5593 5590 5589 5588 5588 5588 5587 5585 5582 5581 5579 5576 5574 5571 5570 5569 5568 5566 5561 5555 5549 5544 5540 5535 5530 5525
5604 5603 5605 5602 5602 5598 5598 5601 5599 5598 5599 5597 5596 5594 5592 5591 5589 5588 5585 5583 5582 5582 5582 5580 5579 5578 5577 5574 5572 5569 5568 5567 5566 5566 5565 5562 5558 5553 5549 5545 5542 5538 5534 5529
5595 5595 5594 5595 5593 5590 5592 5595 5593 5594 5591 5590 5590 5588 5585 5583 5581 5579 5578 5577 5577 5577 5576 5575 5574 5573 5570 5568 5565 5564 5563 5563 5563 5563 5562 5559 5556 5552 5549 5546 5543 5540 5536 5532
5589 5587 5586 5588 5585 5585 5588 5591 5588 5587 5587 5585 5582 5580 5579 5576 5576 5574 5574 5574 5573 5572 5571 5571 5569 5566 5564 5563 5562 5561 5561 5561 5560 5560 5558 5556 5554 5551 5549 5546 5543 5540 5536 5532
5583 5583 5583 5583 5582 5583 5583 5579 5580 5581 5580 5578 5575 5571 5570 5569 5569 5570 5570 5570 5569 5569 5567 5565 5563 5561 5560 5559 5558 5558 5558 5558 5557 5557 5555 5553 5551 5549 5547 5544 5541 5538 5534 5530
5579 5579 5578 5579 5578 5578 5577 5575 5575 5574 5573 5571 5568 5567 5567 5567 5566 5567 5567 5567 5566 5565 5562 5560 5559 5558 5557 5556 5555 5555 5556 5555 5554 5553 5552 5550 5548 5546 5544 5541 5538 5535 5531 5527
5573 5574 5573 5571 5573 5573 5573 5571 5570 5569 5567 5565 5562 5562 5563 5564 5564 5564 5564 5563 5561 5559 5558 5557 5556 5555 5554 5553 5552 5552 5552 5551 5551 5550 5548 5546 5544 5543 5540 5537 5534 5531 5527 5524
5565 5566 5565 5566 5566 5567 5567 5564 5564 5564 5561 5559 5557 5557 5558 5560 5560 5559 5559 5558 5556 5555 5554 5553 5553 5552 5550 5549 5549 5549 5548 5548 5547 5545 5543 5541 5539 5537 5535 5532 5529 5526 5522 5518
5560 5560 5560 5561 5560 5560 5561 5560 5558 5558 5556 5555 5553 5553 5553 5555 5555 5555 5554 5553 5552 5551 5551 5550 5549 5548 5547 5547 5546 5545 5544 5543 5541 5540 5538 5536 5534 5532 5529 5526 5523 5519 5516 5512
5552 5553 5554 5553 5554 5553 5553 5552 5552 5551 5551 5548 5548 5548 5549 5550 5550 5550 5549 5548 5547 5547 5546 5546 5545 5544 5543 5542 5541 5541 5540 5538 5536 5535 5533 5530 5528 5525 5522 5519 5516 5512 5508 5503
5546 5547 5547 5546 5546 5546 5544 5546 5545 5544 5544 5543 5543 5544 5545 5545 5545 5545 5544 5543 5542 5542 5542 5541 5540 5539 5538 5537 5536 5535 5534 5532 5530 5528 5526 5523 5521 5518 5516 5513 5509 5505 5501 5496
5539 5538 5538 5537 5537 5537 5537 5538 5537 5537 5536 5536 5537 5538 5540 5539 5540 5539 5538 5538 5537 5537 5536 5536 5535 5534 5533 5532 5531 5529 5528 5525 5523 5521 5518 5516 5513 5510 5507 5504 5500 5495 5491 5486
5530 5529 5527 5527 5527 5528 5528 5529 5529 5529 5529 5529 5531 5532 5533 5533 5534 5533 5533 5532 5531 5531 5531 5530 5529 5529 5528 5526 5525 5523 5521 5519 5516 5514 5512 5509 5505 5502 5498 5494 5489 5484 5480 5474
5520 5518 5517 5517 5518 5518 5519 5520 5521 5522 5523 5524 5525 5527 5528 5528 5528 5528 5527 5526 5525 5524 5524 5523 5522 5521 5520 5519 5517 5515 5513 5511 5509 5505 5502 5499 5495 5491 5487 5482 5478 5473 5467 5462
5509 5508 5507 5509 5510 5512 5512 5514 5516 5517 5518 5519 5520 5521 5522 5522 5521 5521 5520 5520 5519 5518 5517 5516 5514 5513 5512 5510 5508 5506 5504 5501 5499 5495 5492 5488 5484 5480 5475 5470 5465 5460 5454 5449
5501 5499 5499 5502 5504 5506 5507 5509 5510 5512 5513 5514 5515 5516 5516 5516 5515 5515 5514 5513 5512 5511 5510 5507 5506 5504 5502 5500 5498 5496 5494 5491 5488 5485 5480 5476 5472 5467 5463 5458 5452 5447 5442 5436
5495 5494 5495 5496 5498 5500 5502 5504 5505 5506 5507 5508 5509 5509 5509 5509 5508 5508 5507 5505 5504 5503 5501 5499 5497 5495 5493 5490 5487 5485 5482 5479 5476 5472 5468 5464 5460 5455 5450 5445 5439 5434 5428 5422
5489 5489 5489 5491 5493 5495 5496 5498 5499 5500 5500 5501 5501 5501 5501 5500 5500 5499 5498 5497 5496 5493 5491 5489 5487 5485 5482 5480 5477 5474 5471 5467 5463 5459 5455 5450 5446 5441 5436 5430 5425 5419 5414 5408
5484 5484 5484 5485 5486 5488 5489 5490 5491 5492 5492 5492 5492 5492 5492 5491 5489 5489 5488 5487 5485 5482 5480 5479 5476 5473 5471 5469 5465 5462 5458 5454 5450 5446 5441 5437 5432 5427 5421 5416 5410 5404 5398 5392
5480 5479 5479 5479 5480 5480 5481 5481 5482 5483 5483 5483 5483 5482 5481 5480 5479 5478 5477 5476 5474 5471 5469 5467 5464 5462 5459 5456 5453 5449 5444 5440 5436 5432 5427 5422 5418 5412 5407 5401 5396 5389 5383 5377
5474 5474 5473 5473 5473 5473 5473 5473 5473 5473 5473 5472 5472 5471 5471 5470 5469 5468 5466 5464 5462 5460 5458 5455 5452 5449 5446 5443 5440 5437 5432 5428 5423 5418 5413 5408 5403 5398 5392 5386 5380 5374 5367 5361
5468 5467 5467 5466 5465 5465 5465 5464 5464 5464 5463 5462 5461 5461 5460 5460 5459 5457 5455 5452 5450 5448 5446 5443 5440 5437 5433 5430 5426 5422 5418 5413 5409 5404 5399 5394 5388 5383 5377 5371 5364 5358 5352 5345
5461 5461 5460 5459 5458 5457 5457 5456 5455 5454 5454 5453 5452 5450 5449 5448 5447 5446 5444 5441 5438 5435 5433 5430 5427 5424 5420 5416 5412 5408 5403 5399 5394 5389 5384 5378 5373 5367 5361 5355 5349 5343 5336 5329
5453 5452 5451 5450 5450 5449 5448 5447 5447 5445 5444 5443 5443 5441 5438 5437 5435 5434 5432 5429 5426 5423 5420 5417 5413 5409 5405 5401 5397 5393 5388 5383 5379 5373 5368 5362 5357 5351 5346 5340 5334 5327 5320 5313